[[{"header":{"parameterUnit":"m.s-1","parameterCategory":1,"la1":30.2992,"la2":30.254,"lo1":-89.0895,"lo2":-89.0443,"dy":0.0025,"dx":0.0025,"nx":19,"ny":19,"refTime":"2026-03-30T03:00:00:Z","depth":0,"parameterNumber":2,"parameterNumberName":"U-component_of_WINDS"},"data":[0,0,0,-5.7153,-5.7155,-5.7232,-5.7233,-5.7348,-5.7349,0,0,0,0,0,0,0,0,0,0,0,-5.7139,-5.714,-5.7153,-5.7155,-5.7232,-5.7233,-5.7348,-5.7349,0,0,0,0,0,0,0,0,0,0,0,-5.7139,-5.714,-5.7142,-5.7155,-5.7232,-5.7233,-5.7348,-5.7283,0,0,0,0,0,0,0,0,0,0,-5.7205,-5.7202,-5.714,-5.7142,-5.7156,-5.7232,-5.7233,-5.728,-5.7287,-5.732,0,-5.7351,0,-5.7352,-5.7358,-5.7358,0,0,0,-5.7147,-5.7196,-5.7208,-5.7142,-5.7156,-5.7232,-5.7195,-5.7284,-5.7292,-5.733,-5.7353,-5.7357,-5.7354,-5.7359,-5.7359,-5.7571,-5.7572,0,0,-5.7143,-5.7158,-5.7203,-5.7214,-5.7203,-5.7193,-5.7198,-5.7289,-5.7315,-5.7353,-5.7359,-5.7356,-5.736,-5.7361,-5.757,-5.7571,0,0,0,-5.7136,-5.7156,-5.7165,-5.721,-5.7223,-5.7195,-5.7201,-5.7311,-5.7312,-5.736,-5.7357,-5.736,-5.7362,-5.7568,-5.757,-5.7648,0,0,0,-5.7133,-5.7151,-5.7164,-5.7174,-5.7221,-5.7268,-5.7221,-5.7306,-5.7316,-5.7357,-5.736,-5.7363,-5.7567,-5.7569,-5.7643,-5.7681,0,0,0,-5.7131,-5.7151,-5.7166,-5.7175,-5.7209,-5.7266,-5.7273,-5.7308,-5.7315,-5.7359,-5.7364,-5.7566,-5.7569,-5.7638,-5.7673,-5.7739,0,0,0,-5.7133,-5.7235,-5.7167,-5.728,-5.7208,-5.7315,-5.7272,-5.7351,-5.7398,-5.7361,-5.7567,-5.757,-5.7636,-5.7668,-5.7734,-5.7794,-5.7821,0,0,-5.7269,-5.7252,-5.7317,-5.7259,-5.738,-5.7302,-5.7435,-5.7464,-5.7455,-5.7533,-5.7538,-5.7644,-5.7673,-5.7738,-5.7977,-5.7999,0,0,0,-5.7365,-5.7412,-5.7441,-5.7486,-5.7512,-5.7536,-5.7543,-5.7554,-5.7619,-5.7498,-5.7688,-5.7704,-5.7741,-5.7769,-5.7788,-5.7817,-5.7585,-5.7584,-5.7584,-5.7577,-5.756,-5.7666,-5.7659,-5.7705,-5.7712,-5.7746,-5.7762,-5.7732,-5.7778,-5.7799,-5.7946,-5.7979,-5.7993,-5.8025,-5.7833,-5.7833,-5.7834,-5.7834,-5.7772,-5.7833,-5.7793,-5.7881,-5.7863,-5.7937,-5.7949,-5.7926,-5.7991,-5.7929,-5.7961,-5.789,-5.8018,-5.8044,-5.784,-5.7839,-5.7838,-5.7837,-5.7837,-5.7905,-5.7931,-5.7944,-5.8008,-5.806,-5.8051,-5.8116,-5.8098,-5.8082,-5.8115,-5.8134,-5.8132,-5.8125,-5.8126,-5.8127,-5.8127,-5.8127,-5.8128,-5.8128,-5.8035,-5.8048,-5.8104,-5.8141,-5.8168,-5.8201,-5.8212,-5.8238,-5.8262,-5.8244,-5.8244,-5.8208,-5.8035,-5.7989,-5.8136,-5.8134,-5.8133,-5.8133,-5.8132,-5.8231,-5.8185,-5.8272,-5.8299,-5.8341,-5.8392,-5.8371,-5.8427,-5.8446,-5.8478,-5.8438,-5.8314,-5.8294,-5.8279,-5.824,-5.8443,-5.8443,-5.8443,-5.8443,-5.834,-5.833,-5.8414,-5.8459,-5.8501,-5.8491,-5.8589,-5.86,-5.8603,-5.8614,-5.8583,-5.8533,-5.8519,-5.8507,-5.8487,-5.845,-5.8702,-5.8703,-5.8703,-5.8458,-5.8451,-5.8537,-5.854,-5.8572,-5.86,-5.8691,-5.8744,-5.8739,-5.8713,-5.8621,-5.8611,-5.8529,-5.8504,-5.847,-5.844,-5.8373,0,0]},{"header":{"parameterUnit":"m.s-1","parameterCategory":1,"la1":30.2992,"la2":30.254,"lo1":-89.0895,"lo2":-89.0443,"dy":0.0025,"dx":0.0025,"nx":19,"ny":19,"refTime":"2026-03-30T03:00:00:Z","depth":0,"parameterNumber":3,"parameterNumberName":"V-component_of_WINDS"},"data":[0,0,0,3.1236,3.1237,3.1295,3.1295,3.1372,3.1373,0,0,0,0,0,0,0,0,0,0,0,3.122,3.122,3.1236,3.1237,3.1295,3.1295,3.1372,3.1373,0,0,0,0,0,0,0,0,0,0,0,3.1219,3.122,3.1221,3.1237,3.1295,3.1295,3.1372,3.1327,0,0,0,0,0,0,0,0,0,0,3.127,3.1257,3.122,3.1221,3.1238,3.1295,3.1295,3.1325,3.133,3.1347,0,3.1363,0,3.1369,3.1378,3.1379,0,0,0,3.1236,3.1253,3.1267,3.1221,3.1238,3.1295,3.1269,3.1328,3.1334,3.1354,3.1364,3.1366,3.137,3.1379,3.1379,3.1483,3.1483,0,0,3.1233,3.1231,3.1263,3.1271,3.1262,3.1267,3.127,3.1331,3.1342,3.1364,3.1368,3.1372,3.138,3.138,3.1482,3.1483,0,0,0,3.1224,3.1229,3.1242,3.1268,3.1278,3.1268,3.1273,3.1339,3.1343,3.1369,3.1373,3.138,3.1381,3.1482,3.1483,3.1508,0,0,0,3.1222,3.1224,3.124,3.124,3.1277,3.1309,3.1279,3.1339,3.1346,3.1372,3.138,3.1382,3.1481,3.1482,3.1506,3.152,0,0,0,3.1215,3.1223,3.1232,3.1239,3.1265,3.1308,3.1316,3.1341,3.1349,3.1379,3.1382,3.1481,3.1482,3.1504,3.1517,3.1547,0,0,0,3.1208,3.1252,3.1232,3.1284,3.1264,3.1324,3.1316,3.136,3.1389,3.138,3.1481,3.1483,3.1503,3.1515,3.1545,3.1572,3.1583,0,0,3.1263,3.1259,3.129,3.1273,3.1336,3.1315,3.1382,3.141,3.1414,3.146,3.1462,3.1506,3.1516,3.1546,3.1645,3.1654,0,0,0,3.1306,3.1328,3.1346,3.1374,3.1397,3.1418,3.1436,3.1447,3.1486,3.1437,3.1526,3.1532,3.1549,3.1562,3.157,3.1585,3.1488,3.1488,3.1488,3.1381,3.1386,3.1437,3.1449,3.1476,3.1496,3.1519,3.1536,3.1531,3.1553,3.1566,3.1626,3.1641,3.1646,3.1662,3.1581,3.1581,3.1581,3.1581,3.1463,3.1495,3.149,3.1538,3.1542,3.1583,3.1604,3.16,3.1638,3.1615,3.1631,3.1606,3.1656,3.167,3.1583,3.1583,3.1582,3.1582,3.1582,3.1512,3.1528,3.1541,3.1584,3.1616,3.1627,3.1665,3.1668,3.167,3.1686,3.1701,3.17,3.1701,3.1693,3.1693,3.1693,3.1694,3.1694,3.1694,3.1557,3.1572,3.1603,3.1634,3.1653,3.1679,3.1701,3.172,3.1742,3.1741,3.1741,3.1735,3.166,3.1641,3.1697,3.1697,3.1696,3.1696,3.1696,3.1638,3.1621,3.1669,3.1689,3.1726,3.1759,3.1763,3.1802,3.1818,3.1837,3.1828,3.1773,3.1768,3.1762,3.1747,3.1827,3.1827,3.1827,3.1827,3.1679,3.1678,3.173,3.1761,3.1792,3.1802,3.1858,3.1876,3.1892,3.1902,3.1891,3.1871,3.1865,3.1864,3.1856,3.1842,3.1944,3.1944,3.1944,3.1729,3.1732,3.1778,3.1795,3.1824,3.185,3.1903,3.194,3.1954,3.1949,3.1911,3.1906,3.1873,3.1862,3.1856,3.1843,3.1816,0,0]}]]